Weather Service Report


611 
FPUS83 KFGF 272231
OPUFGF
PRAIRIE TO PINES WEATHER ROUNDUP
NATIONAL WEATHER SERVICE EASTERN NORTH DAKOTA/GRAND FORKS ND
400 PM CST MON FEB 27 2017

 **SATELLITE DATA USED TO AUGMENT SKY COVER AT AUTOMATED STATIONS**
 *****  WEATHER ACROSS EASTERN NORTH DAKOTA  *****
  
CITY           SKY/WX    TMP DP  RH WIND       PRES   REMARKS
GRAND FORKS    CLOUDY    25  15  66 N17       29.87R WCI  12          
GRAND FORKS AF CLOUDY    23  19  86 NE14      29.87S WCI  11          
GRAND CITY NWS NOT AVBL                                               
BUXTON         NOT AVBL                                               
DEVILS LAKE    LGT SNOW  16  12  86 NE13      29.85S FOG     WCI   2  
FARGO          FAIR      33  24  69 NE10      29.80F WCI  25          
WAHPETON ARPT    N/A     32  28  86 E8        29.78F WCI  25          
$$

 *****  WEATHER ACROSS CENTRAL AND WESTERN NORTH DAKOTA  *****
  
CITY           SKY/WX    TMP DP  RH WIND       PRES   REMARKS
JAMESTOWN      CLOUDY    27  20  75 NE12      29.78R WCI  17          
BISMARCK       CLOUDY    22  16  78 NE16      29.80R WCI   8          
MINOT          FLURRIES  14   7  73 N9        29.83S WCI   2          
MINOT AFB      FLURRIES  12   7  79 N9        29.83S WCI   0          
GARRISON         N/A     15   9  76 NE8       29.80S WCI   4          
WILLISTON      FAIR      16   8  71 NE8       29.80F WCI   5          
DICKINSON      LGT SNOW  16  12  84 NE14      29.72R FOG     WCI   2  
HETTINGER      PTSUNNY   28  18  66 NE7       29.69R WCI  21          
$$

 *****  OTHER OBSERVATIONS NORTHEAST NORTH DAKOTA  *****
  
CITY           SKY/WX    TMP DP  RH WIND       PRES   REMARKS
WALHALLA       NOT AVBL                                               
LANGDON        NOT AVBL                                               
CAVALIER       LGT SNOW  16  10  79 N10       29.92S WCI   3          
GRAFTON        LGT SNOW  18  16  93 N14       29.92S WCI   4          
CANDO          NOT AVBL                                               
FORT TOTTEN    NOT AVBL                                               
ROLLA          FAIR      10   7  85 N8        29.84S WCI  -1          
RUGBY          LGT SNOW  14  12  92 E12       29.85R WCI   0          
 ***** THE ABOVE OBSERVATIONS ARE NON NWS ARE NOT QUALITY
        CONTROLLED AND MAY MIS-REPORT RAIN FOR SNOW...
$$

 *****  OTHER OBSERVATIONS SOUTHEAST NORTH DAKOTA *****
  
CITY           SKY/WX    TMP DP  RH WIND       PRES   REMARKS
COOPERSTOWN    CLOUDY    25  19  80 NE10      29.83R WCI  15          
VALLEY CITY    CLOUDY    27  23  86 NE13G18   29.81S WCI  16          
OAKES          NOT AVBL                                               
GWINNER        FAIR      32  30  93 NE12      29.76S WCI  23          
SHEYENNE NWR     N/A     32  26  78 E10       29.95S WCI  24          
BUFFALO        NOT AVBL                                               
WYNDMERE         N/A     34  30  86 NE8         N/A                   
 ***** THE ABOVE OBSERVATIONS ARE NON NWS ARE NOT QUALITY
       CONTROLLED AND MAY MIS-REPORT RAIN FOR SNOW...
$$

  *****  WEATHER ACROSS NORTHERN MINNESOTA  *****     
  
CITY           SKY/WX    TMP DP  RH WIND       PRES   REMARKS
FLAG ISLAND    MIX PCPN  25  16  68 SW9       29.86S WCI  15          
WARROAD        FAIR      27  18  69 W7        29.88S WCI  19          
ROSEAU         PTSUNNY   23  18  80 NW7       29.88S WCI  15          
HALLOCK        CLOUDY    18  12  79 N10       29.91S WCI   6          
THF RVR FALLS    N/A     25  17  72 MISG        N/A                   
HALSTAD          N/A     29  23  78 NE13        N/A  WCI  19          
FOSSTON        FAIR      28  19  69 N8        29.83S WCI  20          
BAUDETTE       CLOUDY    29  11  47 S5        29.86S WCI  24          
WASKISH        FAIR      27  12  54 NW6       29.86S WCI  20          
CROOKSTON      FAIR      27  19  74 N9        29.87S WCI  17          
$$
  *****  WEATHER ACROSS CENTRAL AND WEST MINNESOTA  *****     
  
CITY           SKY/WX    TMP DP  RH WIND       PRES   REMARKS
BEMIDJI        FAIR      31  17  57 E6        29.82F                  
PARK RAPIDS    CLOUDY    34  20  56 SE7       29.80F                  
WADENA         CLOUDY    34  25  69 E8        29.79F                  
DETROIT LAKES  FAIR      34  27  75 SE9       29.79F                  
MOORHEAD       FAIR      34  23  64 NE8       29.81S                  
FERGUS FALLS   FAIR      36  27  69 E7        29.81F                  
ELBOW LAKE     FAIR      37  28  69 SE8       29.77F                  
MORRIS MN      FAIR      43  28  56 SE16      29.75S                  
STAPLES        CLOUDY    36  25  64 E6        29.80F                  
WHEATON        FAIR      39  28  65 E10       29.77F                  
$$
  *****  WEATHER ELSEWHERE ACROSS MINNESOTA  *****     
  
CITY           SKY/WX    TMP DP  RH WIND       PRES   REMARKS
DULUTH         FAIR      32  23  69 E7        29.87F                  
INTRNTL FALLS  PTSUNNY   28   8  43 SW6       29.87F WCI  22          
ELY            FAIR      30  18  59 CALM      29.87S                  
CLOQUET        CLOUDY    34  21  60 E5        29.86F                  
BRAINERD       CLOUDY    37  24  59 S6        29.83F                  
HIBBING        PTSUNNY   31  20  63 SE8       29.85F WCI  23          
ALEXANDRIA     FAIR      38  23  55 SE16      29.78F                  
SAINT CLOUD    CLOUDY    41  24  51 S13       29.84F                  
MINNEAPOLIS    CLOUDY    43  20  39 S10       29.90F                  
$$

  *****  WEATHER ACROSS SOUTH DAKOTA  *****
  
CITY           SKY/WX    TMP DP  RH WIND       PRES   REMARKS
SIOUX FALLS    FAIR      44  27  51 S18G26    29.77S                  
BROOKINGS      FAIR      46  22  38 S21       29.73S                  
WATERTOWN      FAIR      43  24  47 SW20      29.70F                  
HURON          CLOUDY    48  26  42 S16G22    29.68F                  
SISSETON         N/A     40  29  64 E8        29.73F                  
ABERDEEN       FAIR      42  18  37 N6        29.71S                  
MITCHELL       FAIR      47  27  45 S14       29.72F                  
PIERRE         CLOUDY    46  17  31 N16       29.63S                  
MOBRIDGE       FAIR      40  22  48 N8        29.66R                  
RAPID CITY     FAIR      41  18  39 N15       29.57R                  
$$

  *****  SOME WEATHER IN NEARBY STATES *****
  
CITY           SKY/WX    TMP DP  RH WIND       PRES   REMARKS
GLASGOW MT     FAIR      18  10  71 SE13      29.74R WCI   5          
GREAT FALLS MT FAIR      21  13  71 E9        29.53S WCI  11          
CHEYENNE WY    FAIR      40  20  44 SW9       29.51F                  
SCOTTSBLUFF NE FAIR      37  23  56 E9        29.53F                  
OMAHA NE       PTSUNNY   57  26  30 SE24G30   29.77F                  
DES MOINES IA  CLOUDY    55  24  30 SE13      29.89F                  
DAVENPORT IA   FAIR      54  32  43 S12       30.00F                  
CHICAGO IL     PTSUNNY   54  32  43 SW10      30.07F                  
EAU CLAIRE WI  FAIR      40  22  48 SE9       29.95F                  
LA CROSSE WI   FAIR      47  30  51 S12       29.97F                  
$$

  *****  SOME NATIONAL WEATHER *****
  
CITY           SKY/WX    TMP DP  RH WIND       PRES   REMARKS
LA GUARDIA NY  CLOUDY    52  33  48 VRB7      30.36R                  
RALEIGH NC     PTSUNNY   63  20  19 S10       30.34F                  
ATLANTA GA     CLOUDY    51  47  86 E8        30.26R                  
NEW ORLEANS LA PTSUNNY   77  67  71 S13       30.07R                  
OKLAHOMA CITY  FAIR      74  52  46 S24G30    29.79F                  
ALBUQUERQUE NM PTSUNNY   57  18  21 W8        29.83F                  
SALT LAKE CITY FLURRIES  34  27  75 W7        29.73R                  
LOS ANGELES CA CLOUDY    56  47  71 W7        29.85F                  
BOISE ID       PTSUNNY   35  25  66 VRB3      29.76S                  
SEATTLE WA     PTSUNNY   41  36  82 S15G24    29.66S                  
$$

*** WEATHER ACROSS MANITOBA...SASKATCHEWAN AND ONTARIO ***
                ***ONTARIO***
  
CITY           SKY/WX    TMP DP  RH WIND       PRES   REMARKS
GERALDTON      MOSUNNY   25   5  42 SW13G24   29.93S WCI  13          
THUNDER BAY    MOSUNNY   30  18  59 S7        29.95F WCI  23          
SIOUX LOOKOUT  PTSUNNY   25   5  42 SW10G17   29.83S WCI  15          
TORONTO        PTSUNNY   46  23  39 W12G17    30.22R                  
BIG TROUT LK   FLURRIES   5  -4  66 NW7       29.86R WCI  -7          
PICKLE LAKE    FLURRIES  23   7  50 SW14G24   29.78S WCI  11          
DRYDEN         CLOUDY    27   7  43 SW10G18   29.83S WCI  17          
KENORA         PTSUNNY   23  12  63 SW10      29.83S WCI  12          
$$      
                *** MANITOBA***
  
CITY           SKY/WX    TMP DP  RH WIND       PRES   REMARKS
BRANDON        PTSUNNY   10  -2  56 NW7       29.89S WCI   0          
DAUPHIN        SUNNY     14   1  57 W12       29.90R WCI   0          
ISLAND LAKE    MOSUNNY    1 -13  51 W10       29.89  WCI -14          
PILOT MOUND      N/A     14   5  67 NE5         N/A  WCI   6          
THE PAS        MOSUNNY    7  -9  47 W8        29.86S WCI  -6          
THOMPSON       MOSUNNY   -6 -20  49 NW8       29.88R WCI -21          
WINNIPEG       PTSUNNY   14   7  73 N3        29.94S                  
LYNN LAKE      SUNNY     -8 -20  54 NW8       29.83R WCI -23          
CHURCHILL      CRYSTALS -22 -29  69 NW13      29.88R DRFTSNOWWCI -46  
GILLAM         MOSUNNY  -13 -24  58 W10       29.89R WCI -32          
$$
                ***SASKATCHEWAN***
  
CITY           SKY/WX    TMP DP  RH WIND       PRES   REMARKS
ESTEVAN        PTSUNNY    9   0  66 NE7       29.83S WCI  -3          
KINDERSLEY     MOSUNNY   16   1  53 SW3       29.69S                  
LLOYDMINSTER   MOSUNNY   19   7  58 W10       29.65S WCI   8          
PRINCE ALBERT  PTSUNNY   16   1  53 SW16      29.75S WCI   0          
REGINA         MOSUNNY   12  -2  52 SW9       29.81S WCI   0          
YORKTON        SUNNY     10  -2  56 SW3       29.84S   

Return to Home page


Western Regional Climate Center, wrcc@dri.edu